Orbital Elements at Epoch 2459200.5 (2020-Dec-17.0) TDB
Reference: JPL 25 (heliocentric ecliptic J2000)
Element | Value | Uncertainty (1-sigma) | Units |
e | .09162647004006251 | 3.2197e-08 | |
a | 2.210285931545682 | 6.6777e-09 | au |
q | 2.00776523385894 | 7.0775e-08 | au |
i | 1.056688169830042 | 3.3162e-06 | deg |
node | 241.7203286849011 | 0.00023815 | deg |
peri | 215.444675785666 | 0.00023945 | deg |
M | 106.4557287228161 | 2.4566e-05 | deg |
tp | 2458845.574132580516 (2019-Dec-28.07413258) | 8.1681e-05 | TDB |
period | 1200.248345523084 3.29 | 5.4393e-06 1.489e-08 | d yr |
n | .2999379264656326 | 1.3593e-09 | deg/d |
Q | 2.412806629232424 | 7.2896e-09 | au |
|
| | Orbit Determination Parameters
Additional Information
|